Location: East Irvine
(33.6759°N, 117.7598°W)
Time: 23:06:38
(UTC+00:00)

Cosmos 1025 Rocket - Pass Details

Date: 15 November 2025
Orbit: 586 x 610 km, 82.5° (Epoch: 13 December)

Event Time Altitude Azimuth Distance (km) Brightness Sun altitude
Rises 01:14:28 0° 346° (NNW) 2,856 6.4 -5.9°
Reaches altitude 10° 01:16:45 10° 340° (NNW) 1,945 5.7 -6.4°
Maximum altitude 01:20:50 45° 268° (W) 818 4.3 -7.2°
Drops below altitude 10° 01:24:53 10° 195° (SSW) 1,917 6.0 -8.0°
Sets 01:27:08 0° 189° (S) 2,810 6.8 -8.4°
